Weather History for Columbia, MO

Change the Weather History Date:

Wednesday, December 19, 2012

  Actual Average Record
Temperature  
Mean Temperature 40 °F 31 °F  
Max Temperature 49 °F 40 °F 75 °F (1889)
Min Temperature 31 °F 23 °F -16 °F (1901)
Degree Days  
Heating Degree Days 25 34  
Month to date heating degree days 385 593  
Since 1 July heating degree days 1352 1578  
Cooling Degree Days 0 0  
Month to date cooling degree days 0 0  
Year to date cooling degree days 1896 1249  
Moisture  
Dew Point 36 °F    
Average Humidity 83    
Maximum Humidity 100    
Minimum Humidity 65    
Precipitation  
Precipitation 0.15 in 0.07 in 2.45 in (1895)
Month to date precipitation 1.20 1.60  
Year to date precipitation 30.34 41.78  
Snow  
Snow 0.00 in 0.20 in 4.70 in (1973)
Month to date snowfall 0.0 2.4  
Since 1 July snowfall 0.0 3.3  
Snow Depth 0.00 in    
Sea Level Pressure  
Sea Level Pressure 29.74 in    
Wind  
Wind Speed 11 mph (ESE)    
Max Wind Speed 20 mph    
Max Gust Speed 26 mph    
Visibility 6 miles    
Events Rain , Thunderstorm    
T = Trace of Precipitation, MM = Missing Value Source: NWS Daily Summary

Daily Weather History Graph

Daily Weather History Graph

Search for Another Location

Airport:

Trip Planner

Search our weather history database for the weather conditions in past years. The results will help you decide how hot, cold, wet, or windy it might be!

Date:

Astronomy

Dec. 19, 2012 Rise Set
Actual Time 7:22 AM CST 4:49 PM CST
Civil Twilight 6:52 AM CST 5:19 PM CST
Nautical Twilight 6:19 AM CST 5:53 PM CST
Astronomical Twilight 5:46 AM CST 6:25 PM CST
Moon 11:36 AM CST (12/19) No Moon Set
Length of Visible Light 10h 26m
Length of Day
9h 26m
Waxing Crescent, 45% of the Moon is Illuminated
Dec 19
Waxing Crescent
Dec 19
First Quarter
Dec 28
Full
Jan 4
Last Quarter
Jan 11
New

Hourly Weather History & Observations

Time (CST) Temp. Windchill Dew Point Humidity Pressure Visibility Wind Dir Wind Speed Gust Speed Precip Events Conditions
12:54 AM 35.1 °F 30.1 °F 28.9 °F 78% 29.93 in 10.0 mi North 5.8 mph - N/A   Clear
1:54 AM 34.0 °F 29.8 °F 28.9 °F 82% 29.93 in 9.0 mi ENE 4.6 mph - N/A   Clear
2:54 AM 33.1 °F 30.0 °F 28.0 °F 82% 29.95 in 8.0 mi East 3.5 mph - N/A   Clear
3:54 AM 30.9 °F 25.2 °F 28.0 °F 89% 29.94 in 7.0 mi East 5.8 mph - N/A   Clear
4:54 AM 32.0 °F 24.2 °F 28.0 °F 85% 29.89 in 7.0 mi East 9.2 mph - N/A   Clear
5:54 AM 32.0 °F 24.2 °F 28.9 °F 88% 29.91 in 7.0 mi East 9.2 mph - N/A   Clear
6:54 AM 33.1 °F 25.5 °F 30.0 °F 89% 29.94 in 7.0 mi East 9.2 mph - N/A   Clear
7:54 AM 33.1 °F 23.4 °F 30.0 °F 89% 29.91 in 6.0 mi East 13.8 mph - N/A   Clear
8:54 AM 35.1 °F 28.6 °F 30.9 °F 85% 29.94 in 6.0 mi East 8.1 mph - N/A   Mostly Cloudy
9:54 AM 36.0 °F 29.0 °F 32.0 °F 86% 29.94 in 6.0 mi East 9.2 mph - N/A   Overcast
10:54 AM 37.9 °F 28.9 °F 32.0 °F 79% 29.87 in 8.0 mi ESE 16.1 mph - N/A   Mostly Cloudy
11:54 AM 39.9 °F 34.5 °F 32.0 °F 73% 29.89 in 9.0 mi East 8.1 mph - N/A   Overcast
12:54 PM 42.1 °F 35.2 °F 33.1 °F 70% 29.84 in 10.0 mi ENE 12.7 mph 18.4 mph N/A   Clear
1:54 PM 43.0 °F 36.8 °F 33.1 °F 68% 29.80 in 10.0 mi East 11.5 mph - N/A   Overcast
2:54 PM 44.1 °F 36.8 °F 33.1 °F 65% 29.77 in 10.0 mi ESE 16.1 mph 24.2 mph N/A   Mostly Cloudy
3:32 PM 44.6 °F 37.4 °F 33.8 °F 66% 29.75 in 10.0 mi ESE 16.1 mph 23.0 mph N/A   Overcast
3:54 PM 44.1 °F 36.8 °F 34.0 °F 68% 29.74 in 10.0 mi East 16.1 mph 23.0 mph N/A   Overcast
4:54 PM 43.0 °F 35.7 °F 35.1 °F 74% 29.73 in 10.0 mi East 15.0 mph - N/A   Overcast
5:42 PM 42.8 °F 36.2 °F 35.6 °F 76% 29.70 in 10.0 mi ESE 12.7 mph 21.9 mph 0.00 in   Overcast
5:54 PM 43.0 °F 35.7 °F 37.0 °F 80% 29.71 in 10.0 mi ESE 15.0 mph - 0.00 in Rain Light Rain
6:54 PM 43.0 °F 35.1 °F 37.9 °F 82% 29.68 in 8.0 mi ESE 17.3 mph 23.0 mph 0.00 in   Overcast
7:14 PM 42.8 °F 34.5 °F 39.2 °F 87% 29.64 in 4.0 mi ESE 18.4 mph 25.3 mph 0.05 in Rain Light Rain
7:35 PM 42.8 °F 34.8 °F 39.2 °F 87% 29.64 in 5.0 mi ESE 17.3 mph - 0.05 in Rain , Thunderstorm Light Thunderstorms and Rain
7:54 PM 43.0 °F 35.7 °F 39.9 °F 89% 29.63 in 5.0 mi ESE 15.0 mph - 0.14 in   Overcast
8:27 PM 42.8 °F 36.6 °F 41.0 °F 93% 29.61 in 2.5 mi ESE 11.5 mph - 0.00 in   Overcast
8:54 PM 43.0 °F 36.0 °F 42.1 °F 97% 29.60 in 1.8 mi ESE 13.8 mph - 0.00 in   Overcast
9:43 PM 44.6 °F 39.2 °F 42.8 °F 93% 29.53 in 0.8 mi ESE 10.4 mph - 0.00 in   Mist
9:54 PM 44.1 °F 38.1 °F 43.0 °F 96% 29.54 in 0.8 mi ESE 11.5 mph - 0.00 in Rain Light Rain
10:22 PM 44.6 °F 39.2 °F 44.6 °F 100% 29.50 in 1.0 mi SE 10.4 mph - 0.01 in Rain Light Rain
10:54 PM 46.9 °F - 46.0 °F 97% 29.48 in 1.8 mi ESE 10.4 mph - 0.01 in   Overcast
11:08 PM 48.2 °F - 46.4 °F 93% 29.46 in 2.0 mi SE 9.2 mph - N/A   Overcast
11:44 PM 48.2 °F - 48.2 °F 100% 29.44 in 3.0 mi SE 11.5 mph - N/A   Overcast
11:54 PM 48.9 °F - 48.0 °F 97% 29.43 in 3.0 mi SE 11.5 mph - N/A   Mostly Cloudy